Time,TemperatureF,DewpointF,PressureIn,WindDirection,WindDirectionDegrees,WindSpeedMPH,WindSpeedGustMPH,Humidity,HourlyPrecipIn,Conditions,Clouds,dailyrainin,SoftwareType,DateUTC
2013-10-20 00:13:00,51.0,-99.9,-100.00,SSW,204,4.0,7.0,-999,-99.99,,,-99.99,,2013-10-20 06:13:00,
2013-10-20 02:12:00,50.0,-99.9,-100.00,NE,49,2.0,3.0,-999,-99.99,,,-99.99,,2013-10-20 08:12:00,
2013-10-20 02:22:00,50.0,-99.9,-100.00,NE,49,2.0,3.0,-999,-99.99,,,-99.99,,2013-10-20 08:22:00,
2013-10-20 02:50:00,49.0,-99.9,-100.00,WSW,245,0.0,2.0,-999,-99.99,,,-99.99,,2013-10-20 08:50:00,
2013-10-20 03:40:00,43.0,-99.9,-100.00,SSW,196,1.0,6.0,-999,-99.99,,,-99.99,,2013-10-20 09:40:00,
2013-10-20 03:43:00,49.0,-99.9,-100.00,WSW,245,0.0,2.0,-999,-99.99,,,-99.99,,2013-10-20 09:43:00,
2013-10-20 04:23:00,43.0,-99.9,-100.00,SSW,196,1.0,6.0,-999,-99.99,,,-99.99,,2013-10-20 10:23:00,
2013-10-20 04:33:00,43.0,-99.9,-100.00,SSW,196,1.0,6.0,-999,-99.99,,,-99.99,,2013-10-20 10:33:00,
2013-10-20 05:43:00,40.0,-99.9,-100.00,NE,43,7.0,9.0,-999,-99.99,,,-99.99,,2013-10-20 11:43:00,
2013-10-20 05:52:00,40.0,-99.9,-100.00,NE,43,7.0,9.0,-999,-99.99,,,-99.99,,2013-10-20 11:52:00,
2013-10-20 06:42:00,42.0,-99.9,-100.00,SW,215,3.0,3.0,-999,-99.99,,,-99.99,,2013-10-20 12:42:00,
2013-10-20 06:52:00,42.0,-99.9,-100.00,SW,215,3.0,3.0,-999,-99.99,,,-99.99,,2013-10-20 12:52:00,
2013-10-20 07:50:00,46.0,-99.9,-100.00,SW,223,3.0,4.0,-999,-99.99,,,-99.99,,2013-10-20 13:50:00,
2013-10-20 07:52:00,43.0,-99.9,-100.00,NE,40,4.0,4.0,-999,-99.99,,,-99.99,,2013-10-20 13:52:00,
2013-10-20 08:02:00,43.0,-99.9,-100.00,NE,40,4.0,4.0,-999,-99.99,,,-99.99,,2013-10-20 14:02:00,
2013-10-20 08:42:00,46.0,-99.9,-100.00,SW,223,3.0,4.0,-999,-99.99,,,-99.99,,2013-10-20 14:42:00,
2013-10-20 09:11:00,51.0,-99.9,-100.00,SW,218,3.0,4.0,-999,-99.99,,,-99.99,,2013-10-20 15:11:00,
2013-10-20 09:22:00,51.0,-99.9,-100.00,SW,218,3.0,4.0,-999,-99.99,,,-99.99,,2013-10-20 15:22:00,
2013-10-20 09:54:00,56.0,-99.9,-100.00,SSW,202,2.0,3.0,-999,-99.99,,,-99.99,,2013-10-20 15:54:00,
2013-10-20 10:24:00,59.0,-99.9,-100.00,WNW,300,0.0,1.0,-999,-99.99,,,-99.99,,2013-10-20 16:24:00,
2013-10-20 11:10:00,69.0,-99.9,-100.00,WSW,244,2.0,5.0,-999,-99.99,,,-99.99,,2013-10-20 17:10:00,
2013-10-20 11:42:00,67.0,-99.9,-100.00,SW,228,4.0,5.0,-999,-99.99,,,-99.99,,2013-10-20 17:42:00,
2013-10-20 11:52:00,69.0,-99.9,-100.00,WSW,244,2.0,5.0,-999,-99.99,,,-99.99,,2013-10-20 17:52:00,
2013-10-20 12:02:00,69.0,-99.9,-100.00,WSW,244,2.0,5.0,-999,-99.99,,,-99.99,,2013-10-20 18:02:00,
2013-10-20 12:20:00,76.0,-99.9,-100.00,SE,129,3.0,5.0,-999,-99.99,,,-99.99,,2013-10-20 18:20:00,
2013-10-20 12:42:00,72.0,-99.9,-100.00,NE,43,5.0,6.0,-999,-99.99,,,-99.99,,2013-10-20 18:42:00,
2013-10-20 13:12:00,76.0,-99.9,-100.00,SE,129,3.0,5.0,-999,-99.99,,,-99.99,,2013-10-20 19:12:00,
2013-10-20 14:40:00,77.0,-99.9,-100.00,NW,305,1.0,6.0,-999,-99.99,,,-99.99,,2013-10-20 20:40:00,
2013-10-20 14:52:00,76.0,-99.9,-100.00,West,261,4.0,5.0,-999,-99.99,,,-99.99,,2013-10-20 20:52:00,
2013-10-20 15:02:00,76.0,-99.9,-100.00,West,261,4.0,5.0,-999,-99.99,,,-99.99,,2013-10-20 21:02:00,
2013-10-20 15:22:00,77.0,-99.9,-100.00,NW,305,1.0,6.0,-999,-99.99,,,-99.99,,2013-10-20 21:22:00,
2013-10-20 15:34:00,77.0,-99.9,-100.00,NW,305,1.0,6.0,-999,-99.99,,,-99.99,,2013-10-20 21:34:00,
2013-10-20 16:53:00,79.0,-99.9,-100.00,WSW,250,3.0,6.0,-999,-99.99,,,-99.99,,2013-10-20 22:53:00,
2013-10-20 17:03:00,79.0,-99.9,-100.00,WSW,250,3.0,6.0,-999,-99.99,,,-99.99,,2013-10-20 23:03:00,
2013-10-20 17:50:00,77.0,-99.9,-100.00,ESE,102,1.0,2.0,-999,-99.99,,,-99.99,,2013-10-20 23:50:00,
2013-10-20 18:43:00,77.0,-99.9,-100.00,ESE,102,1.0,2.0,-999,-99.99,,,-99.99,,2013-10-21 00:43:00,
2013-10-20 19:12:00,76.0,-99.9,-100.00,NE,52,2.0,4.0,-999,-99.99,,,-99.99,,2013-10-21 01:12:00,
2013-10-20 19:22:00,76.0,-99.9,-100.00,NE,52,2.0,4.0,-999,-99.99,,,-99.99,,2013-10-21 01:22:00,
2013-10-20 20:50:00,73.0,-99.9,-100.00,NNW,334,2.0,5.0,-999,-99.99,,,-99.99,,2013-10-21 02:50:00,
2013-10-20 21:12:00,73.0,-99.9,-100.00,West,276,1.0,4.0,-999,-99.99,,,-99.99,,2013-10-21 03:12:00,
2013-10-20 21:45:00,73.0,-99.9,-100.00,NNW,334,2.0,5.0,-999,-99.99,,,-99.99,,2013-10-21 03:45:00,
2013-10-20 22:54:00,71.0,-99.9,-100.00,WNW,296,2.0,5.0,-999,-99.99,,,-99.99,,2013-10-21 04:54:00,
2013-10-20 23:04:00,71.0,-99.9,-100.00,WNW,296,2.0,5.0,-999,-99.99,,,-99.99,,2013-10-21 05:04:00,
2013-10-20 23:13:00,71.0,-99.9,-100.00,WNW,296,2.0,5.0,-999,-99.99,,,-99.99,,2013-10-21 05:13:00,
2013-10-20 23:50:00,70.0,-99.9,-100.00,NW,325,4.0,4.0,-999,-99.99,,,-99.99,,2013-10-21 05:50:00,